Skip Page Navigation
NASA JPL Caltech
NASA Logo - Jet Propulsion Laboratory + View the NASA Portal
+ Center for Near-Earth Object Studies
JPL Home Earth Solar System Stars & Galaxies Technology
JPL Solar System Dynamics
BODIES ORBITS EPHEMERIDES TOOLS PHYSICAL DATA DISCOVERY FAQ SITE MAP
JPL Small-Body Database Browser
Search: [ help ]  
180501 (2004 CK92)
Classification: Main-belt Asteroid          SPK-ID: 2180501
Ephemeris | Orbit Diagram | Orbital Elements | Mission Design | Physical Parameters | Discovery Circumstances | Close-Approach Data ]

[ show orbit diagram ]
Orbital Elements at Epoch 2459200.5 (2020-Dec-17.0) TDB
Reference: JPL 19 (heliocentric ecliptic J2000)
 Element Value Uncertainty (1-sigma)   Units 
e .1597099601274863 3.8879e-08  
a 2.404640890583641 1.0708e-08 au
q 2.020595789827604 9.3396e-08 au
i 12.11866293458769 5.1402e-06 deg
node 175.0691028136609 1.9321e-05 deg
peri 28.86692211800681 2.5172e-05 deg
M 142.7113629157704 1.738e-05 deg
tp 2458660.579494464427
(2019-Jun-26.07949446)
6.4012e-05 TDB
period 1361.989529225687
3.73
9.0977e-06
2.491e-08
d
yr
n .2643192126481809 1.7656e-09 deg/d
Q 2.788685991339677 1.2418e-08 au
  Orbit Determination Parameters
   # obs. used (total)      486  
   data-arc span      10076 days (27.59 yr)  
   first obs. used      1993-03-19  
   last obs. used      2020-10-19  
   planetary ephem.      DE441  
   SB-pert. ephem.      SB441-N16  
   condition code      0  
   norm. resid. RMS      .55462  
   source      ORB  
   producer      Otto Matic  
   solution date      2021-Apr-13 21:26:46  

Additional Information
 Earth MOID = 1.02636 au 
 Jupiter MOID = 2.17896 au 
 T_jup = 3.476 
[ show covariance matrix ]

Ephemeris | Orbit Diagram | Orbital Elements | Mission Design | Physical Parameters | Discovery Circumstances | Close-Approach Data ]

Physical Parameter Table
Parameter Symbol Value Units Sigma Reference Notes
absolute magnitude H 16.66   n/a E2021B55  

180501 (2004 CK92)          Discovered 2004-Feb-14 by NEAT at Haleakala
Reference: 20080321/Numbers.arcLast Updated: 2008-03-26

[ show close-approach data ]
Alternate Designations
 2004 CK92 = 1993 FA17 = 2002 UU69 
Ephemeris | Orbit Diagram | Orbital Elements | Mission Design | Physical Parameters | Discovery Circumstances | Close-Approach Data ]
ABOUT SSD CREDITS/AWARDS PRIVACY/COPYRIGHT GLOSSARY LINKS
FirstGov 2021-Apr-18 16:15 UT
(server date/time)  
NASA Home Page
Site Manager:   Ryan S. Park
Webmaster  Alan B. Chamberlin